[[{"header":{"parameterUnit":"m.s-1","parameterCategory":1,"la1":30.2991,"la2":30.254,"lo1":-89.0895,"lo2":-89.0444,"dy":0.0017,"dx":0.0017,"nx":28,"ny":28,"refTime":"2023-10-01T03:00:00:Z","depth":0,"parameterNumber":2,"parameterNumberName":"U-component_of_WINDS"},"data":[0,0,0,0,0,0,0,0,0,0,0,0,0,0,0,0,0,0,0,0,0,0,0,0,0,0,0,0,0,0,0,0,0,0,0,0,0,0,0,0,0,0,0,0,0,0,0,0,0,0,0,0,0,0,0,0,0,0,-1.1895,-1.1896,0,-1.1951,-1.1952,-1.1953,-1.1907,-1.1905,-1.1903,-1.1901,-1.1962,-1.1965,-1.1968,0,0,0,0,0,0,0,0,0,0,0,0,0,-1.1749,-1.1752,-1.1895,-1.1896,-1.1896,-1.1951,-1.1952,-1.1953,-1.1907,-1.1905,-1.1903,-1.19,-1.1961,-1.1965,-1.1969,0,0,0,0,0,0,0,0,0,0,0,0,0,-1.1809,-1.1753,-1.1895,-1.188,-1.1879,-1.1951,-1.1952,-1.1953,-1.1908,-1.1905,-1.1902,-1.1899,-1.1959,-1.1964,-1.1969,-1.2059,0,0,-1.1985,-1.1987,0,0,0,0,0,0,0,0,-1.1806,-1.1815,-1.1882,-1.1881,-1.188,-1.1919,-1.1923,-1.1989,-1.1909,-1.1897,-1.1901,-1.1898,-1.195,-1.1956,-1.1973,-1.2062,-1.2065,-1.1985,-1.1989,-1.1991,-1.1992,0,0,0,0,0,0,0,-1.1802,-1.1812,-1.1917,-1.1883,-1.1882,-1.1871,-1.1876,-1.1935,-1.1939,-1.1898,-1.1895,-1.1902,-1.1949,-1.1968,-1.1974,-1.2066,-1.1985,-1.199,-1.1993,-1.1995,-1.2232,-1.2235,0,0,0,0,0,0,-1.1799,-1.1809,-1.1915,-1.1919,-1.1835,-1.1876,-1.1882,-1.191,-1.1939,-1.194,-1.1904,-1.1899,-1.1961,-1.1968,-1.1976,-1.2085,-1.1991,-1.1996,-1.1998,-1.2229,-1.2233,-1.2236,0,0,0,0,0,0,-1.1796,-1.1809,-1.1913,-1.1863,-1.1876,-1.1882,-1.1913,-1.1912,-1.1931,-1.1943,-1.1944,-1.1923,-1.1959,-1.1969,-1.2039,-1.2086,-1.1998,-1.2003,-1.2225,-1.223,-1.2235,-1.2302,0,0,0,0,0,0,-1.1792,-1.1808,-1.1842,-1.1864,-1.1878,-1.1975,-1.1916,-1.1916,-1.194,-1.1934,-1.1961,-1.1963,-1.1957,-1.2031,-1.2044,-1.2092,-1.2007,-1.2221,-1.2227,-1.2233,-1.2296,-1.2309,-1.232,0,0,0,0,0,-1.1787,-1.186,-1.1844,-1.1857,-1.1921,-1.1978,-1.1986,-1.1978,-1.1944,-1.1979,-1.1986,-1.1962,-1.2078,-1.2039,-1.2053,-1.2103,-1.2218,-1.2226,-1.2233,-1.2291,-1.2306,-1.232,0,0,0,0,0,0,-1.1845,-1.1862,-1.1846,-1.1927,-1.1951,-1.197,-1.2014,-1.1995,-1.203,-1.2023,-1.2012,-1.2018,-1.2092,-1.2104,-1.206,-1.2191,-1.2143,-1.2153,-1.2182,-1.2197,-1.2209,-1.2207,-1.2011,0,0,0,0,0,-1.1866,-1.1911,-1.1924,-1.1995,-1.2007,-1.2009,-1.2033,-1.2024,-1.2049,-1.2059,-1.2072,-1.2098,-1.214,-1.2168,-1.2208,-1.2296,-1.2302,-1.2337,-1.2349,-1.2358,-1.2369,-1.2417,-1.2434,-1.226,-1.226,-1.226,0,0,-1.1913,-1.1928,-1.1957,-1.2007,-1.2024,-1.2071,-1.2018,-1.2069,-1.2104,-1.2067,-1.2135,-1.2145,-1.2173,-1.2252,-1.2288,-1.2264,-1.2417,-1.2368,-1.2375,-1.2381,-1.2427,-1.2443,-1.2458,-1.2265,-1.2264,-1.2263,0,0,-1.2023,-1.2037,-1.2099,-1.2117,-1.2144,-1.2144,-1.2158,-1.2179,-1.2185,-1.2251,-1.2225,-1.2266,-1.2339,-1.236,-1.238,-1.2495,-1.2475,-1.2508,-1.2572,-1.262,-1.2633,-1.2646,-1.2689,-1.2705,-1.2517,-1.2517,-1.2517,0,-1.2078,-1.2147,-1.2133,-1.2187,-1.221,-1.2176,-1.2239,-1.2257,-1.2296,-1.2313,-1.2285,-1.2375,-1.2391,-1.2476,-1.2504,-1.2521,-1.2538,-1.2507,-1.2632,-1.2644,-1.2656,-1.2697,-1.2713,-1.2521,-1.2521,-1.2521,-1.252,0,-1.2215,-1.2263,-1.2309,-1.2347,-1.2374,-1.2432,-1.2427,-1.2457,-1.2444,-1.2447,-1.2516,-1.2534,-1.2577,-1.2595,-1.2584,-1.2679,-1.2663,-1.2634,-1.2585,-1.2677,-1.2716,-1.2731,-1.2527,-1.2526,-1.2525,-1.2524,0,0,-1.2367,-1.2394,-1.2411,-1.2428,-1.2454,-1.2491,-1.2546,-1.2587,-1.2614,-1.264,-1.2689,-1.2749,-1.2722,-1.2745,-1.2735,-1.2776,-1.2869,-1.2742,-1.2742,-1.2768,-1.2977,-1.3002,-1.302,-1.2853,-1.2856,-1.2859,-1.2976,0,-1.248,-1.2578,-1.2566,-1.2659,-1.2704,-1.2671,-1.272,-1.2741,-1.2744,-1.2783,-1.2786,-1.2831,-1.279,-1.2804,-1.2843,-1.285,-1.2912,-1.284,-1.29,-1.2903,-1.2899,-1.304,-1.3067,-1.3177,-1.299,-1.2993,-1.2995,0,-1.2627,-1.2658,-1.2756,-1.2774,-1.2792,-1.2837,-1.2873,-1.2909,-1.2933,-1.2932,-1.2957,-1.2939,-1.2996,-1.2942,-1.3021,-1.2973,-1.2996,-1.3003,-1.3007,-1.3016,-1.2958,-1.3057,-1.3212,-1.323,-1.3018,-1.3016,-1.3014,0,-1.2732,-1.2798,-1.2865,-1.288,-1.2902,-1.2934,-1.2945,-1.2965,-1.299,-1.3021,-1.3037,-1.3075,-1.3097,-1.3126,-1.3119,-1.3081,-1.3201,-1.3146,-1.3204,-1.3204,-1.3235,-1.3234,-1.34,-1.3243,-1.3242,-1.3242,-1.3242,0,-1.2863,-1.2925,-1.2913,-1.2955,-1.3023,-1.3008,-1.3076,-1.3082,-1.31,-1.3143,-1.3115,-1.3157,-1.3143,-1.3184,-1.3178,-1.3246,-1.3255,-1.3257,-1.3256,-1.3262,-1.3263,-1.3281,-1.3274,-1.3246,-1.3246,-1.3245,-1.3244,0,-1.2994,-1.2988,-1.306,-1.3074,-1.3079,-1.3129,-1.3141,-1.3181,-1.318,-1.3235,-1.3247,-1.3247,-1.3293,-1.3288,-1.334,-1.3336,-1.3421,-1.3408,-1.3413,-1.3412,-1.3471,-1.3467,-1.3658,-1.3683,-1.3506,-1.3508,-1.3509,0,-1.308,-1.3127,-1.3145,-1.3172,-1.3185,-1.3227,-1.3252,-1.3237,-1.3265,-1.3293,-1.333,-1.3373,-1.3407,-1.3483,-1.3488,-1.3527,-1.3518,-1.3582,-1.3524,-1.3529,-1.3523,-1.3522,-1.3528,-1.3595,-1.3597,-1.3598,-1.36,0,-1.3234,-1.3228,-1.3265,-1.3301,-1.3331,-1.3359,-1.3384,-1.3407,-1.3394,-1.3426,-1.3472,-1.3499,-1.355,-1.3595,-1.3631,-1.3643,-1.3621,-1.3617,-1.3633,-1.3642,-1.3645,-1.3648,-1.3449,-1.3614,-1.3613,-1.3612,-1.3611,-1.361,-1.3348,-1.3389,-1.3408,-1.345,-1.3466,-1.3489,-1.3527,-1.3531,-1.3569,-1.361,-1.3597,-1.3651,-1.3671,-1.3718,-1.3733,-1.3775,-1.3752,-1.3774,-1.3781,-1.3787,-1.3796,-1.3634,-1.3781,-1.378,-1.378,-1.3779,-1.3779,0,-1.3504,-1.3514,-1.3552,-1.3587,-1.362,-1.3592,-1.3617,-1.3648,-1.3694,-1.3714,-1.3748,-1.3801,-1.3843,-1.385,-1.389,-1.3922,-1.3913,-1.3934,-1.3933,-1.3937,-1.3813,-1.3797,-1.394,-1.394,-1.394,-1.394,-1.394,-1.394,-1.359,-1.3657,-1.3653,-1.3728,-1.3737,-1.3788,-1.3805,-1.3827,-1.3843,-1.3904,-1.3938,-1.3941,-1.3957,-1.3997,-1.4034,-1.4035,-1.4053,-1.4079,-1.4076,-1.3961,-1.3945,-1.393,-1.3915,-1.4082,-1.4082,-1.4197,-1.4198,-1.4199]},{"header":{"parameterUnit":"m.s-1","parameterCategory":1,"la1":30.2991,"la2":30.254,"lo1":-89.0895,"lo2":-89.0444,"dy":0.0017,"dx":0.0017,"nx":28,"ny":28,"refTime":"2023-10-01T03:00:00:Z","depth":0,"parameterNumber":3,"parameterNumberName":"V-component_of_WINDS"},"data":[0,0,0,0,0,0,0,0,0,0,0,0,0,0,0,0,0,0,0,0,0,0,0,0,0,0,0,0,0,0,0,0,0,0,0,0,0,0,0,0,0,0,0,0,0,0,0,0,0,0,0,0,0,0,0,0,0,0,-1.6364,-1.6364,0,-1.6423,-1.6423,-1.6424,-1.6447,-1.6446,-1.6446,-1.6446,-1.6503,-1.6505,-1.6507,0,0,0,0,0,0,0,0,0,0,0,0,0,-1.6267,-1.6269,-1.6363,-1.6364,-1.6365,-1.6423,-1.6423,-1.6424,-1.6447,-1.6446,-1.6446,-1.6446,-1.6503,-1.6505,-1.6507,0,0,0,0,0,0,0,0,0,0,0,0,0,-1.6316,-1.6269,-1.6363,-1.6383,-1.6386,-1.6422,-1.6423,-1.6424,-1.6447,-1.6446,-1.6446,-1.6446,-1.6502,-1.6505,-1.6507,-1.6528,0,0,-1.6515,-1.6516,0,0,0,0,0,0,0,0,-1.6313,-1.6319,-1.638,-1.6382,-1.6385,-1.6427,-1.641,-1.6459,-1.6447,-1.6423,-1.6446,-1.6446,-1.6478,-1.6483,-1.6494,-1.653,-1.6533,-1.6515,-1.6517,-1.6518,-1.6518,0,0,0,0,0,0,0,-1.6309,-1.6317,-1.6387,-1.638,-1.6384,-1.6388,-1.6395,-1.642,-1.6451,-1.6425,-1.6427,-1.6434,-1.6479,-1.6492,-1.6496,-1.6534,-1.6515,-1.6517,-1.6519,-1.652,-1.6589,-1.6589,0,0,0,0,0,0,-1.6303,-1.6314,-1.6385,-1.6389,-1.6348,-1.639,-1.6398,-1.6414,-1.6451,-1.6457,-1.6434,-1.6435,-1.6487,-1.6493,-1.6498,-1.6524,-1.6518,-1.652,-1.6521,-1.6588,-1.6589,-1.6589,0,0,0,0,0,0,-1.6301,-1.6309,-1.6383,-1.6352,-1.6361,-1.6392,-1.641,-1.6415,-1.6427,-1.6458,-1.6463,-1.6441,-1.6487,-1.6494,-1.652,-1.6526,-1.6521,-1.6523,-1.6588,-1.6589,-1.6589,-1.6576,0,0,0,0,0,0,-1.6298,-1.6309,-1.6317,-1.6352,-1.6363,-1.6405,-1.641,-1.6416,-1.6432,-1.6433,-1.6466,-1.6471,-1.6488,-1.6516,-1.6523,-1.6529,-1.6525,-1.6588,-1.6588,-1.6589,-1.6576,-1.6576,-1.6576,0,0,0,0,0,-1.6295,-1.6311,-1.6318,-1.6326,-1.6375,-1.6405,-1.6412,-1.6432,-1.6432,-1.6441,-1.646,-1.647,-1.6524,-1.6519,-1.6526,-1.6534,-1.6587,-1.6588,-1.6589,-1.6576,-1.6576,-1.6576,0,0,0,0,0,0,-1.6275,-1.6316,-1.6324,-1.6352,-1.6375,-1.6409,-1.6421,-1.6431,-1.6454,-1.6454,-1.6477,-1.6484,-1.6508,-1.6523,-1.6516,-1.6555,-1.6556,-1.6559,-1.6544,-1.6544,-1.6544,-1.654,-1.6528,0,0,0,0,0,-1.6274,-1.6297,-1.633,-1.6352,-1.6363,-1.639,-1.6404,-1.6417,-1.6442,-1.6452,-1.6473,-1.6496,-1.6518,-1.6532,-1.6554,-1.6578,-1.6585,-1.6587,-1.6587,-1.6587,-1.6589,-1.6602,-1.6603,-1.6592,-1.6592,-1.6592,0,0,-1.6272,-1.6297,-1.631,-1.6348,-1.6368,-1.639,-1.6398,-1.642,-1.6436,-1.6455,-1.6481,-1.6497,-1.6524,-1.6549,-1.6561,-1.6562,-1.6593,-1.6588,-1.6588,-1.6589,-1.6603,-1.6604,-1.6605,-1.6592,-1.6592,-1.6592,0,0,-1.628,-1.6301,-1.6321,-1.6341,-1.6371,-1.6389,-1.6393,-1.6426,-1.6438,-1.6465,-1.6479,-1.6497,-1.6535,-1.6554,-1.6568,-1.6582,-1.6591,-1.6589,-1.6588,-1.6601,-1.6602,-1.6603,-1.6608,-1.6609,-1.659,-1.659,-1.659,0,-1.6273,-1.6308,-1.633,-1.6352,-1.6368,-1.6387,-1.6406,-1.6424,-1.6459,-1.6469,-1.6471,-1.6519,-1.6538,-1.6568,-1.6571,-1.6582,-1.6588,-1.6585,-1.66,-1.6601,-1.6603,-1.6607,-1.6609,-1.659,-1.659,-1.659,-1.659,0,-1.6298,-1.6321,-1.6334,-1.6369,-1.6386,-1.6407,-1.6431,-1.6446,-1.6458,-1.6475,-1.6501,-1.6525,-1.6552,-1.656,-1.6572,-1.6591,-1.6591,-1.6596,-1.6598,-1.6603,-1.6608,-1.661,-1.6589,-1.6589,-1.6589,-1.6589,0,0,-1.6295,-1.6342,-1.6346,-1.6362,-1.6396,-1.6414,-1.6435,-1.6463,-1.6475,-1.6498,-1.6516,-1.6548,-1.6552,-1.6569,-1.6582,-1.6593,-1.6603,-1.6597,-1.6598,-1.6597,-1.6625,-1.6621,-1.6623,-1.6609,-1.6609,-1.661,-1.6623,0,-1.6307,-1.6347,-1.6367,-1.6398,-1.6419,-1.6437,-1.6455,-1.6478,-1.6494,-1.6514,-1.6531,-1.6553,-1.6558,-1.6568,-1.658,-1.6599,-1.6608,-1.6598,-1.6625,-1.6625,-1.6618,-1.6625,-1.6621,-1.6632,-1.6625,-1.6625,-1.6625,0,-1.6326,-1.6351,-1.6384,-1.6415,-1.6425,-1.6441,-1.6468,-1.6487,-1.6512,-1.6523,-1.6542,-1.6555,-1.6577,-1.6577,-1.6607,-1.6599,-1.6611,-1.6622,-1.6623,-1.6626,-1.6626,-1.6628,-1.6637,-1.6638,-1.6628,-1.6628,-1.6628,0,-1.6321,-1.6361,-1.6387,-1.6399,-1.6437,-1.6448,-1.6464,-1.6489,-1.6504,-1.6527,-1.6537,-1.6562,-1.6575,-1.6593,-1.6613,-1.6611,-1.664,-1.6642,-1.6649,-1.6649,-1.6655,-1.6654,-1.6665,-1.6663,-1.6663,-1.6663,-1.6663,0,-1.6332,-1.6351,-1.6385,-1.64,-1.6422,-1.6444,-1.6465,-1.6482,-1.6505,-1.6523,-1.6539,-1.6555,-1.658,-1.6599,-1.6614,-1.6636,-1.6642,-1.6651,-1.6655,-1.665,-1.6648,-1.6658,-1.6657,-1.6663,-1.6663,-1.6663,-1.6663,0,-1.6329,-1.6352,-1.6381,-1.6414,-1.6423,-1.6437,-1.6466,-1.648,-1.6498,-1.652,-1.6527,-1.6554,-1.6577,-1.6598,-1.6629,-1.6639,-1.6661,-1.6666,-1.6653,-1.6655,-1.6661,-1.666,-1.6678,-1.6681,-1.6677,-1.6677,-1.6677,0,-1.6335,-1.635,-1.6385,-1.6399,-1.6415,-1.6437,-1.6453,-1.6476,-1.6491,-1.6521,-1.6532,-1.6557,-1.6578,-1.6615,-1.6636,-1.6659,-1.6665,-1.6669,-1.6668,-1.6662,-1.6664,-1.6663,-1.6665,-1.6669,-1.6669,-1.6669,-1.6669,0,-1.6342,-1.6353,-1.6375,-1.6402,-1.6421,-1.6442,-1.6465,-1.6475,-1.6501,-1.6518,-1.6542,-1.6559,-1.6591,-1.6615,-1.6641,-1.6656,-1.6666,-1.6669,-1.6672,-1.6667,-1.6658,-1.6663,-1.6653,-1.6668,-1.6668,-1.6668,-1.6668,-1.6668,-1.6343,-1.6358,-1.6385,-1.641,-1.6429,-1.6449,-1.6465,-1.6484,-1.6506,-1.6534,-1.6546,-1.6571,-1.6595,-1.6631,-1.6646,-1.6665,-1.6667,-1.6671,-1.6673,-1.6673,-1.6672,-1.6656,-1.667,-1.667,-1.667,-1.667,-1.667,0,-1.6351,-1.637,-1.6392,-1.6423,-1.6442,-1.6452,-1.6477,-1.6492,-1.6514,-1.6536,-1.6557,-1.6585,-1.6608,-1.6631,-1.6656,-1.6667,-1.6672,-1.6672,-1.6672,-1.6675,-1.6669,-1.6664,-1.6667,-1.6667,-1.6667,-1.6667,-1.6667,-1.6667,-1.6358,-1.6383,-1.6397,-1.6431,-1.6449,-1.6474,-1.6488,-1.6506,-1.6524,-1.6555,-1.6575,-1.659,-1.6613,-1.6639,-1.6661,-1.6667,-1.6675,-1.6674,-1.6681,-1.6675,-1.6675,-1.6675,-1.6671,-1.6675,-1.6675,-1.6685,-1.6685,-1.6685]}]]